| time (UTC) | temp F | wind direction | speed MPH | gust MPH | rain 1hr in | rain 24hr in | rain mn in | humidity % | barometer mb |
| 20260902110005 | 64 | 317 | 4.0 | 8.0 | 0.00 | 0.00 | 0.00 | 53 | 990.7 |
| 20260902105403 | 63 | 330 | 4.0 | 8.0 | 0.00 | 0.00 | 0.00 | 53 | 990.8 |
| 20260902104503 | 63 | 336 | 4.0 | 8.0 | 0.00 | 0.00 | 0.00 | 55 | 990.8 |
| 20260902103603 | 63 | 338 | 3.0 | 6.0 | 0.00 | 0.00 | 0.00 | 54 | 990.7 |
| 20260902102703 | 64 | 330 | 3.0 | 6.0 | 0.00 | 0.00 | 0.00 | 53 | 990.7 |
| 20260902101803 | 64 | 332 | 4.0 | 9.0 | 0.00 | 0.00 | 0.00 | 53 | 990.7 |
| 20260902100904 | 64 | 318 | 3.0 | 6.0 | 0.00 | 0.00 | 0.00 | 54 | 990.8 |
| 20260902100003 | 65 | 318 | 4.0 | 8.0 | 0.00 | 0.00 | 0.00 | 52 | 990.6 |
| 20260902095403 | 66 | 312 | 4.0 | 8.0 | 0.00 | 0.00 | 0.00 | 51 | 990.7 |
| 20260902094503 | 66 | 325 | 6.0 | 11.0 | 0.00 | 0.00 | 0.00 | 50 | 990.7 |
| 20260902093603 | 66 | 332 | 7.0 | 12.0 | 0.00 | 0.00 | 0.00 | 50 | 990.7 |
| 20260902092703 | 66 | 329 | 6.0 | 11.0 | 0.00 | 0.00 | 0.00 | 50 | 990.7 |
| 20260902091803 | 66 | 327 | 6.0 | 10.0 | 0.00 | 0.00 | 0.00 | 51 | 990.6 |
| 20260902090903 | 66 | 339 | 2.0 | 10.0 | 0.00 | 0.00 | 0.00 | 53 | 990.6 |
| 20260902090004 | 63 | 74 | 1.0 | 5.0 | 0.00 | 0.00 | 0.00 | 59 | 990.7 |
| 20260902085618 | 63 | 76 | 1.0 | 4.0 | 0.00 | 0.00 | 0.00 | 61 | 990.7 |
| 20260902084503 | 61 | 73 | 1.0 | 3.0 | 0.00 | 0.00 | 0.00 | 64 | 990.7 |
| 20260902083816 | 62 | 71 | 1.0 | 3.0 | 0.00 | 0.00 | 0.00 | 65 | 990.6 |
| 20260902082917 | 62 | 75 | 0.0 | 1.0 | 0.00 | 0.00 | 0.00 | 64 | 990.7 |
| 20260902081803 | 62 | 75 | 1.0 | 4.0 | 0.00 | 0.00 | 0.00 | 61 | 990.7 |
| 20260902080903 | 64 | 72 | 2.0 | 5.0 | 0.00 | 0.00 | 0.00 | 58 | 990.7 |
| 20260902080003 | 65 | 75 | 0.0 | 4.0 | 0.00 | 0.00 | 0.00 | 55 | 990.7 |
| 20260902075404 | 66 | 78 | 0.0 | 3.0 | 0.00 | 0.00 | 0.00 | 54 | 990.8 |
| 20260902074503 | 67 | 83 | 1.0 | 8.0 | 0.00 | 0.00 | 0.00 | 53 | 990.7 |
| 20260902073603 | 67 | 77 | 0.0 | 2.0 | 0.00 | 0.00 | 0.00 | 53 | 990.7 |
| 20260902072703 | 67 | 78 | 0.0 | 1.0 | 0.00 | 0.00 | 0.00 | 55 | 990.7 |
| 20260902071803 | 66 | 82 | 0.0 | 4.0 | 0.00 | 0.00 | 0.00 | 55 | 990.6 |
| 20260902070903 | 66 | 80 | 0.0 | 4.0 | 0.00 | 0.00 | 0.00 | 59 | 990.6 |
| 20260902070004 | 64 | 65 | 0.0 | 2.0 | 0.00 | 0.00 | 0.00 | 62 | 990.4 |
| 20260902065403 | 64 | 67 | 0.0 | 1.0 | 0.00 | 0.00 | 0.00 | 62 | 990.2 |
| 20260902064504 | 66 | 69 | 0.0 | 1.0 | 0.00 | 0.00 | 0.00 | 59 | 990.4 |
| 20260902063603 | 67 | 74 | 0.0 | 2.0 | 0.00 | 0.00 | 0.00 | 54 | 990.2 |
| 20260902062703 | 67 | 72 | 0.0 | 2.0 | 0.00 | 0.00 | 0.00 | 53 | 990.2 |
| 20260902061803 | 68 | 77 | 0.0 | 2.0 | 0.00 | 0.00 | 0.00 | 54 | 990.1 |
| 20260902060903 | 69 | 69 | 0.0 | 3.0 | 0.00 | 0.00 | 0.00 | 51 | 990.1 |
| 20260902060006 | 69 | 86 | 0.0 | 2.0 | 0.00 | 0.00 | 0.00 | 51 | 989.9 |
| 20260902055616 | 68 | 84 | 0.0 | 3.0 | 0.00 | 0.00 | 0.00 | 53 | 989.9 |
| 20260902054503 | 68 | 0 | 0.0 | 0.0 | 0.00 | 0.00 | 0.00 | 55 | 989.9 |
| 20260902053604 | 67 | 63 | 0.0 | 1.0 | 0.00 | 0.00 | 0.00 | 56 | 990.0 |
| 20260902052703 | 67 | 0 | 0.0 | 0.0 | 0.00 | 0.00 | 0.00 | 57 | 989.8 |
| 20260902051803 | 66 | 72 | 0.0 | 1.0 | 0.00 | 0.00 | 0.00 | 60 | 989.7 |
| 20260902051117 | 66 | 84 | 0.0 | 1.0 | 0.00 | 0.00 | 0.00 | 63 | 989.8 |
| 20260902050216 | 66 | 84 | 0.0 | 1.0 | 0.00 | 0.00 | 0.00 | 67 | 989.9 |
| 20260902045618 | 67 | 84 | 0.0 | 1.0 | 0.00 | 0.00 | 0.00 | 69 | 989.7 |
| 20260902044717 | 68 | 84 | 0.0 | 1.0 | 0.00 | 0.00 | 0.00 | 66 | 989.7 |
| 20260902043603 | 70 | 84 | 0.0 | 1.0 | 0.00 | 0.00 | 0.00 | 63 | 989.9 |
| 20260902042704 | 71 | 0 | 0.0 | 0.0 | 0.00 | 0.00 | 0.00 | 61 | 989.8 |
| 20260902041803 | 72 | 86 | 0.0 | 1.0 | 0.00 | 0.00 | 0.00 | 59 | 989.9 |
| 20260902040903 | 74 | 0 | 0.0 | 0.0 | 0.00 | 0.00 | 0.00 | 53 | 990.0 |
| 20260902040003 | 75 | 0 | 0.0 | 0.0 | 0.00 | 0.00 | 0.00 | 53 | 990.1 |
| 20260902035403 | 75 | 151 | 0.0 | 1.0 | 0.00 | 0.00 | 0.00 | 49 | 990.1 |
| 20260902034717 | 76 | 147 | 0.0 | 2.0 | 0.00 | 0.00 | 0.00 | 48 | 989.9 |
| 20260902033603 | 76 | 72 | 0.0 | 1.0 | 0.00 | 0.00 | 0.00 | 48 | 989.8 |
| 20260902032703 | 76 | 0 | 0.0 | 0.0 | 0.00 | 0.00 | 0.00 | 46 | 989.8 |
| 20260902031804 | 77 | 135 | 0.0 | 1.0 | 0.00 | 0.00 | 0.00 | 46 | 989.8 |
| 20260902031116 | 77 | 130 | 0.0 | 2.0 | 0.00 | 0.00 | 0.00 | 45 | 989.7 |
| 20260902030003 | 77 | 161 | 0.0 | 4.0 | 0.00 | 0.00 | 0.00 | 44 | 989.5 |
| 20260902025403 | 78 | 182 | 1.0 | 4.0 | 0.00 | 0.00 | 0.00 | 43 | 989.3 |
| 20260902024503 | 78 | 196 | 2.0 | 6.0 | 0.00 | 0.00 | 0.00 | 43 | 989.2 |
| 20260902023603 | 78 | 209 | 2.0 | 8.0 | 0.00 | 0.00 | 0.00 | 43 | 989.1 |
| 20260902022703 | 78 | 199 | 2.0 | 5.0 | 0.00 | 0.00 | 0.00 | 44 | 988.9 |
| 20260902022019 | 78 | 193 | 1.0 | 4.0 | 0.00 | 0.00 | 0.00 | 45 | 989.0 |
| 20260902020904 | 79 | 213 | 1.0 | 4.0 | 0.00 | 0.00 | 0.00 | 41 | 989.0 |
| 20260902020003 | 80 | 191 | 2.0 | 7.0 | 0.00 | 0.00 | 0.00 | 40 | 988.9 |
| 20260902015403 | 80 | 190 | 2.0 | 7.0 | 0.00 | 0.00 | 0.00 | 39 | 988.8 |
| 20260902014503 | 80 | 202 | 3.0 | 9.0 | 0.00 | 0.00 | 0.00 | 38 | 988.7 |
| 20260902013603 | 81 | 207 | 2.0 | 5.0 | 0.00 | 0.00 | 0.00 | 37 | 988.5 |
| 20260902012917 | 81 | 201 | 2.0 | 9.0 | 0.00 | 0.00 | 0.00 | 35 | 988.5 |
| 20260902011803 | 82 | 206 | 3.0 | 9.0 | 0.00 | 0.00 | 0.00 | 34 | 988.4 |
| 20260902011118 | 80 | 199 | 1.0 | 5.0 | 0.00 | 0.00 | 0.00 | 37 | 988.4 |
| 20260902010005 | 81 | 0 | 0.0 | 0.0 | 0.00 | 0.00 | 0.00 | 40 | 988.5 |
| 20260902005403 | 82 | 0 | 0.0 | 0.0 | 0.00 | 0.00 | 0.00 | 37 | 988.4 |
| 20260902004504 | 82 | 0 | 0.0 | 0.0 | 0.00 | 0.00 | 0.00 | 36 | 988.3 |
| 20260902003603 | 82 | 0 | 0.0 | 0.0 | 0.00 | 0.00 | 0.00 | 36 | 988.5 |
| 20260902002703 | 83 | 206 | 0.0 | 3.0 | 0.00 | 0.00 | 0.00 | 35 | 988.4 |
| 20260902001803 | 83 | 226 | 0.0 | 3.0 | 0.00 | 0.00 | 0.00 | 34 | 988.5 |
| 20260902000903 | 84 | 153 | 0.0 | 2.0 | 0.00 | 0.00 | 0.00 | 33 | 988.4 |
| 20260902000003 | 84 | 174 | 0.0 | 1.0 | 0.00 | 0.00 | 0.00 | 33 | 988.3 |
| 20260901235618 | 84 | 207 | 0.0 | 4.0 | 0.00 | 0.00 | 0.00 | 32 | 988.2 |
| 20260901234503 | 85 | 137 | 7.0 | 12.0 | 0.00 | 0.00 | 0.00 | 30 | 988.1 |
| 20260901233603 | 86 | 133 | 7.0 | 13.0 | 0.00 | 0.00 | 0.00 | 31 | 988.1 |
| 20260901232703 | 86 | 133 | 5.0 | 13.0 | 0.00 | 0.00 | 0.00 | 30 | 988.1 |
| 20260901231803 | 86 | 134 | 6.0 | 12.0 | 0.00 | 0.00 | 0.00 | 30 | 988.1 |
| 20260901230903 | 87 | 134 | 5.0 | 11.0 | 0.00 | 0.00 | 0.00 | 29 | 988.2 |
| 20260901230003 | 87 | 134 | 5.0 | 11.0 | 0.00 | 0.00 | 0.00 | 28 | 988.4 |
| 20260901225403 | 86 | 139 | 5.0 | 10.0 | 0.00 | 0.00 | 0.00 | 30 | 988.4 |
| 20260901224717 | 85 | 140 | 4.0 | 9.0 | 0.00 | 0.00 | 0.00 | 31 | 988.4 |
| 20260901223603 | 86 | 147 | 6.0 | 12.0 | 0.00 | 0.00 | 0.00 | 29 | 988.5 |
| 20260901222703 | 86 | 137 | 8.0 | 15.0 | 0.00 | 0.00 | 0.00 | 29 | 988.6 |
| 20260901221803 | 87 | 139 | 10.0 | 19.0 | 0.00 | 0.00 | 0.00 | 29 | 988.7 |
| 20260901220903 | 89 | 138 | 8.0 | 16.0 | 0.00 | 0.00 | 0.00 | 27 | 988.8 |
| 20260901220003 | 89 | 115 | 1.0 | 10.0 | 0.00 | 0.00 | 0.00 | 26 | 988.9 |
| 20260901215403 | 92 | 76 | 0.0 | 2.0 | 0.00 | 0.00 | 0.00 | 23 | 989.0 |
| 20260901214503 | 92 | 82 | 0.0 | 2.0 | 0.00 | 0.00 | 0.00 | 21 | 989.0 |
| 20260901213604 | 91 | 224 | 1.0 | 4.0 | 0.00 | 0.00 | 0.00 | 22 | 989.1 |
| 20260901212703 | 90 | 180 | 2.0 | 5.0 | 0.00 | 0.00 | 0.00 | 23 | 989.1 |
| 20260901211803 | 88 | 160 | 2.0 | 6.0 | 0.00 | 0.00 | 0.00 | 24 | 989.1 |
| 20260901211118 | 88 | 181 | 4.0 | 7.0 | 0.00 | 0.00 | 0.00 | 23 | 989.4 |
| 20260901210003 | 88 | 278 | 3.0 | 11.0 | 0.00 | 0.00 | 0.00 | 24 | 989.8 |
| 20260901205617 | 89 | 268 | 4.0 | 11.0 | 0.00 | 0.00 | 0.00 | 24 | 989.9 |
| 20260901204503 | 88 | 186 | 5.0 | 11.0 | 0.00 | 0.00 | 0.00 | 23 | 990.0 |
| 20260901203603 | 88 | 156 | 6.0 | 11.0 | 0.00 | 0.00 | 0.00 | 24 | 990.1 |
| 20260901202704 | 87 | 159 | 4.0 | 10.0 | 0.00 | 0.00 | 0.00 | 25 | 990.3 |
| 20260901201803 | 87 | 170 | 4.0 | 10.0 | 0.00 | 0.00 | 0.00 | 25 | 990.3 |
| 20260901200903 | 87 | 206 | 5.0 | 14.0 | 0.00 | 0.00 | 0.00 | 26 | 990.6 |
| 20260901200217 | 86 | 177 | 6.0 | 14.0 | 0.00 | 0.00 | 0.00 | 25 | 990.7 |
| 20260901195403 | 86 | 188 | 4.0 | 12.0 | 0.00 | 0.00 | 0.00 | 25 | 990.8 |
| 20260901194503 | 86 | 224 | 4.0 | 13.0 | 0.00 | 0.00 | 0.00 | 26 | 990.9 |
| 20260901193603 | 86 | 200 | 5.0 | 10.0 | 0.00 | 0.00 | 0.00 | 26 | 990.9 |
| 20260901192917 | 86 | 224 | 4.0 | 9.0 | 0.00 | 0.00 | 0.00 | 28 | 991.1 |
| 20260901191804 | 85 | 229 | 3.0 | 10.0 | 0.00 | 0.00 | 0.00 | 27 | 991.2 |
| 20260901190903 | 85 | 240 | 4.0 | 16.0 | 0.00 | 0.00 | 0.00 | 27 | 991.4 |
| 20260901190003 | 84 | 278 | 4.0 | 12.0 | 0.00 | 0.00 | 0.00 | 29 | 991.6 |
| 20260901185616 | 84 | 259 | 4.0 | 12.0 | 0.00 | 0.00 | 0.00 | 32 | 991.6 |
| 20260901184503 | 83 | 306 | 2.0 | 5.0 | 0.00 | 0.00 | 0.00 | 35 | 991.8 |
| 20260901183603 | 83 | 254 | 3.0 | 12.0 | 0.00 | 0.00 | 0.00 | 34 | 992.0 |
| 20260901182703 | 83 | 308 | 3.0 | 9.0 | 0.00 | 0.00 | 0.00 | 34 | 992.0 |
| 20260901182018 | 83 | 285 | 3.0 | 9.0 | 0.00 | 0.00 | 0.00 | 36 | 992.1 |
| 20260901180904 | 82 | 270 | 4.0 | 8.0 | 0.00 | 0.00 | 0.00 | 36 | 992.4 |
| 20260901180003 | 82 | 226 | 5.0 | 14.0 | 0.00 | 0.00 | 0.00 | 36 | 992.5 |
| 20260901175403 | 82 | 242 | 4.0 | 11.0 | 0.00 | 0.00 | 0.00 | 38 | 992.6 |
| 20260901174717 | 81 | 244 | 5.0 | 13.0 | 0.00 | 0.00 | 0.00 | 42 | 992.8 |
| 20260901173603 | 81 | 247 | 6.0 | 12.0 | 0.00 | 0.00 | 0.00 | 37 | 993.0 |
| 20260901172918 | 80 | 264 | 5.0 | 12.0 | 0.00 | 0.00 | 0.00 | 39 | 993.1 |
| 20260901172017 | 80 | 300 | 3.0 | 10.0 | 0.00 | 0.00 | 0.00 | 44 | 993.2 |
| 20260901171116 | 79 | 309 | 5.0 | 11.0 | 0.00 | 0.00 | 0.00 | 44 | 993.4 |
| 20260901170004 | 78 | 287 | 3.0 | 10.0 | 0.00 | 0.00 | 0.00 | 46 | 993.5 |
| 20260901165403 | 78 | 281 | 4.0 | 11.0 | 0.00 | 0.00 | 0.00 | 45 | 993.6 |
| 20260901164717 | 77 | 293 | 3.0 | 10.0 | 0.00 | 0.00 | 0.00 | 48 | 993.8 |
| 20260901163603 | 75 | 303 | 6.0 | 13.0 | 0.00 | 0.00 | 0.00 | 50 | 993.9 |
| 20260901162917 | 74 | 308 | 5.0 | 12.0 | 0.00 | 0.00 | 0.00 | 53 | 994.0 |
| 20260901161803 | 73 | 311 | 4.0 | 10.0 | 0.00 | 0.00 | 0.00 | 54 | 994.0 |
| 20260901160903 | 72 | 299 | 5.0 | 13.0 | 0.00 | 0.00 | 0.00 | 53 | 994.0 |
| 20260901160003 | 71 | 299 | 5.0 | 14.0 | 0.00 | 0.00 | 0.00 | 55 | 994.1 |
| 20260901155404 | 71 | 309 | 3.0 | 9.0 | 0.00 | 0.00 | 0.00 | 59 | 994.1 |
| 20260901154503 | 70 | 319 | 3.0 | 6.0 | 0.00 | 0.00 | 0.00 | 60 | 994.1 |
| 20260901153603 | 69 | 307 | 4.0 | 10.0 | 0.00 | 0.00 | 0.00 | 61 | 994.0 |
| 20260901152703 | 68 | 314 | 4.0 | 10.0 | 0.00 | 0.00 | 0.00 | 61 | 994.1 |
| 20260901151803 | 67 | 343 | 4.0 | 10.0 | 0.00 | 0.00 | 0.00 | 64 | 994.1 |
| 20260901150903 | 66 | 321 | 2.0 | 9.0 | 0.00 | 0.00 | 0.00 | 68 | 994.1 |
| 20260901150003 | 66 | 310 | 3.0 | 10.0 | 0.00 | 0.00 | 0.00 | 68 | 994.2 |
| 20260901145617 | 66 | 310 | 2.0 | 10.0 | 0.00 | 0.00 | 0.00 | 67 | 994.2 |
| 20260901144504 | 66 | 323 | 1.0 | 3.0 | 0.00 | 0.00 | 0.00 | 68 | 994.2 |
| 20260901143603 | 65 | 322 | 0.0 | 3.0 | 0.00 | 0.00 | 0.00 | 68 | 994.1 |
| 20260901142703 | 65 | 322 | 2.0 | 5.0 | 0.00 | 0.00 | 0.00 | 69 | 994.1 |
| 20260901141804 | 65 | 318 | 4.0 | 7.0 | 0.00 | 0.00 | 0.00 | 70 | 993.9 |
| 20260901140903 | 65 | 310 | 4.0 | 10.0 | 0.00 | 0.00 | 0.00 | 71 | 993.9 |
| 20260901140003 | 64 | 296 | 2.0 | 7.0 | 0.00 | 0.00 | 0.00 | 71 | 993.9 |
| 20260901135403 | 64 | 299 | 2.0 | 8.0 | 0.00 | 0.00 | 0.00 | 72 | 993.9 |
| 20260901134503 | 64 | 317 | 4.0 | 8.0 | 0.00 | 0.00 | 0.00 | 71 | 993.8 |
| 20260901133604 | 64 | 312 | 4.0 | 9.0 | 0.00 | 0.00 | 0.00 | 72 | 993.7 |
| 20260901132703 | 64 | 303 | 4.0 | 10.0 | 0.00 | 0.00 | 0.00 | 72 | 993.7 |
| 20260901131803 | 63 | 308 | 5.0 | 10.0 | 0.00 | 0.00 | 0.00 | 74 | 993.6 |
| 20260901130903 | 63 | 306 | 4.0 | 9.0 | 0.00 | 0.00 | 0.00 | 75 | 993.3 |
| 20260901130003 | 63 | 306 | 3.0 | 8.0 | 0.00 | 0.00 | 0.00 | 76 | 993.1 |
| 20260901125403 | 63 | 306 | 2.0 | 7.0 | 0.00 | 0.00 | 0.00 | 76 | 993.2 |
| 20260901124717 | 63 | 296 | 1.0 | 7.0 | 0.00 | 0.00 | 0.00 | 76 | 993.3 |
| 20260901123817 | 63 | 313 | 3.0 | 10.0 | 0.00 | 0.00 | 0.00 | 76 | 993.0 |
| 20260901122704 | 62 | 316 | 6.0 | 10.0 | 0.00 | 0.00 | 0.00 | 77 | 992.9 |
| 20260901121803 | 62 | 314 | 5.0 | 9.0 | 0.00 | 0.00 | 0.00 | 79 | 992.8 |
| 20260901120903 | 61 | 317 | 4.0 | 9.0 | 0.00 | 0.00 | 0.00 | 81 | 992.8 |
| 20260901120003 | 60 | 313 | 1.0 | 4.0 | 0.00 | 0.00 | 0.00 | 83 | 992.9 |
| 20260901115403 | 60 | 310 | 0.0 | 2.0 | 0.00 | 0.00 | 0.00 | 83 | 992.7 |
| 20260901114503 | 60 | 310 | 1.0 | 3.0 | 0.00 | 0.00 | 0.00 | 83 | 992.8 |
| 20260901113603 | 61 | 308 | 2.0 | 5.0 | 0.00 | 0.00 | 0.00 | 83 | 992.7 |
| 20260901112918 | 61 | 316 | 1.0 | 4.0 | 0.00 | 0.00 | 0.00 | 84 | 992.7 |
| 20260901111804 | 61 | 327 | 0.0 | 2.0 | 0.00 | 0.00 | 0.00 | 83 | 992.7 |
| 20260901110903 | 61 | 327 | 1.0 | 3.0 | 0.00 | 0.00 | 0.00 | 83 | 992.8 |